"2009-03-28 00:00:30",749139,3.907,258.1,6.423,1.107,-0.666,99.79308,-1.227,0.115,28.67,0,109.9,13.41,-0.48,220.1
"2009-03-28 00:01:00",749140,2.148,240.3,2.603,0.465,-4.158,99.78117,-1.257,0.006,28.94,0,109.9,13.41,-0.51,202.3
"2009-03-28 00:01:30",749141,1.911,239.8,2.223,0.265,-4.235,99.78371,-1.251,-0.101,28.58,0,109.9,13.45,-0.50,201.8
"2009-03-28 00:02:00",749142,2.9,245.3,6.796,1.221,-2.467,99.78653,-1.244,0.051,27.78,0,109.9,13.42,-0.50,207.3
"2009-03-28 00:02:30",749143,3.621,248.9,6.802,1.169,-0.988,99.78879,-1.238,0.125,28.34,0,109.9,13.42,-0.49,210.9
"2009-03-28 00:03:00",749144,3.453,247.6,6.877,1.197,-0.782,99.78342,-1.252,0.134,29.33,0,109.9,13.42,-0.50,209.6
"2009-03-28 00:03:30",749145,3.475,248.6,6.374,1.176,-0.946,99.77946,-1.262,0.125,28.8,0,109.9,13.42,-0.51,210.6
"2009-03-28 00:04:00",749146,2.443,244.8,6.013,1.131,-3.5,99.76392,-1.301,-0.085,28.39,0,109.9,13.42,-0.55,206.8
"2009-03-28 00:04:30",749147,1.837,242.7,2.27,0.069,-4.364,99.76138,-1.308,-0.137,28.79,0,109.9,13.46,-0.56,204.7
"2009-03-28 00:05:00",749148,2.667,241.9,4.026,1.14,-2.246,99.76054,-1.31,0.059,29.18,0,109.9,13.42,-0.56,203.9
"2009-03-28 00:05:30",749149,3.524,241.7,6.463,1.115,-0.726,99.7611,-1.309,0.015,28.62,0,109.9,13.42,-0.56,203.7
"2009-03-28 00:06:00",749150,3.198,244.3,7.231,1.17,-0.342,99.76138,-1.308,0.093,28.27,0,109.9,13.42,-0.56,206.3
"2009-03-28 00:06:30",749151,2.938,235.6,6.391,1.169,-1.388,99.7625,-1.305,0.009,27.54,0,109.9,13.42,-0.56,197.6
"2009-03-28 00:07:00",749152,2.4,236.1,6.367,1.213,-2.376,99.76138,-1.308,0.015,26.7,0,109.9,13.42,-0.56,198.1
"2009-03-28 00:07:30",749153,1.997,233.2,7.2,1.11,-3.561,99.75713,-1.319,-0.205,25.81,0,109.9,13.42,-0.57,195.2
"2009-03-28 00:08:00",749154,1.308,229.9,0.962,0.036,-4.447,99.75431,-1.326,-0.224,25.22,0,109.9,13.46,-0.58,191.9
"2009-03-28 00:08:30",749155,2.698,237.8,6.804,1.19,-1.268,99.75064,-1.335,-0.036,24.88,0,109.9,13.43,-0.59,199.8
"2009-03-28 00:09:00",749156,2.753,238.4,6.759,1.207,-0.588,99.74782,-1.342,0.008,24.47,0,109.8,13.43,-0.60,200.4
"2009-03-28 00:09:30",749157,1.922,234.1,5.554,1.049,-2.514,99.74754,-1.343,-0.148,24.01,0,109.9,13.43,-0.60,196.1
"2009-03-28 00:10:00",749158,2.896,239.6,6.776,1.192,-1.08,99.7467,-1.345,0.011,24.11,0,109.9,13.43,-0.60,201.6
"2009-03-28 00:10:30",749159,2.448,236.5,7.14,1.234,-2.267,99.74895,-1.34,-0.157,23.99,0,109.9,13.43,-0.59,198.5
"2009-03-28 00:11:00",749160,1.231,229.8,1.307,0.029,-4.503,99.75291,-1.329,-0.257,23.94,0,109.9,13.46,-0.58,191.8
"2009-03-28 00:11:30",749161,1.887,231.7,5.336,1.131,-2.778,99.75346,-1.328,-0.066,24.14,0,109.9,13.43,-0.58,193.7
"2009-03-28 00:12:00",749162,3.102,237.4,5.857,1.111,-0.444,99.7546,-1.325,-0.039,24.21,0,109.9,13.43,-0.58,199.4
"2009-03-28 00:12:30",749163,2.474,229.2,6.088,1.166,-0.902,99.756,-1.322,-0.005,24.39,0,109.9,13.43,-0.57,191.2
"2009-03-28 00:13:00",749164,2.16,230.5,6.67,1.229,-1.761,99.76195,-1.306,-0.019,24.24,0,109.9,13.43,-0.56,192.5
"2009-03-28 00:13:30",749165,1.644,226.9,6.261,1.109,-3.091,99.76279,-1.304,-0.099,24.01,0,109.9,13.43,-0.56,188.9
"2009-03-28 00:14:00",749166,1.019,223,3.082,0.454,-4.16,99.76279,-1.304,-0.07,23.98,0,109.9,13.46,-0.56,185.0
"2009-03-28 00:14:30",749167,0.934,222.3,1.449,0.061,-4.611,99.76279,-1.304,-0.216,23.72,0,109.9,13.46,-0.56,184.3
"2009-03-28 00:15:00",749168,2.137,227.9,5.576,1.187,-2.591,99.76279,-1.304,-0.18,23.78,0,109.9,13.43,-0.56,189.9
"2009-03-28 00:15:30",749169,2.309,229.1,6.191,1.207,-0.74,99.76279,-1.304,0.056,23.96,0,109.9,13.43,-0.56,191.1
"2009-03-28 00:16:00",749170,2.428,231.2,5.876,1.173,-0.572,99.76392,-1.301,0.034,23.94,0,109.8,13.43,-0.55,193.2
"2009-03-28 00:16:30",749171,1.698,227.6,6.046,1.23,-2.75,99.77776,-1.266,-0.136,23.79,0,109.9,13.43,-0.52,189.6
"2009-03-28 00:17:00",749172,1.295,224.1,5.301,1.096,-3.313,99.79075,-1.233,0.006,23.97,0,109.9,13.43,-0.49,186.1
"2009-03-28 00:17:30",749173,1.954,224.6,6.682,1.247,-2.339,99.79667,-1.218,-0.068,23.72,0,109.9,13.43,-0.47,186.6
"2009-03-28 00:18:00",749174,0.69,217.3,0.574,0.035,-4.473,99.79667,-1.218,-0.146,23.31,0,109.9,13.46,-0.47,179.3
"2009-03-28 00:18:30",749175,1.851,221.9,7.087,1.221,-2.395,99.79667,-1.218,-0.035,23.02,0,109.9,13.43,-0.47,183.9
"2009-03-28 00:19:00",749176,2.037,222.5,6.352,1.292,-1.582,99.79696,-1.217,0.008,22.62,0,109.9,13.44,-0.47,184.5
"2009-03-28 00:19:30",749177,2.372,221.3,6.755,1.239,-0.421,99.80317,-1.201,0.109,22.46,0,109.9,13.44,-0.45,183.3
"2009-03-28 00:20:00",749178,2.046,217.3,5.564,1.221,-1.561,99.81136,-1.18,0.026,21.57,0,109.9,13.44,-0.43,179.3
"2009-03-28 00:20:30",749179,1.783,216.8,6.14,1.079,-2.313,99.81757,-1.165,0.112,21.26,0,109.9,13.44,-0.42,178.8
"2009-03-28 00:21:00",749180,2.391,216.7,6.714,1.264,-1.721,99.82407,-1.148,0.004,20.86,0,109.9,13.44,-0.40,178.7
"2009-03-28 00:21:30",749181,1.307,208.2,1.198,0.058,-3.912,99.82999,-1.133,-0.018,20.85,0,109.9,13.48,-0.38,170.2
"2009-03-28 00:22:00",749182,2.294,212.8,6.138,1.205,-1.804,99.83057,-1.132,0.076,21.3,0,109.9,13.44,-0.38,174.8
"2009-03-28 00:22:30",749183,2.765,214.3,6.599,1.251,-0.665,99.83057,-1.132,0.154,21.1,0,109.9,13.44,-0.38,176.3
"2009-03-28 00:23:00",749184,3.268,215.5,6.055,1.165,0.374,99.83057,-1.132,0.209,20.76,0,109.9,13.44,-0.38,177.5
"2009-03-28 00:23:30",749185,3.038,211.4,6.552,1.19,-0.402,99.83057,-1.132,0.054,20.24,0,109.9,13.44,-0.38,173.4
"2009-03-28 00:24:00",749186,2.194,204,5.883,1.052,-2.635,99.83057,-1.132,-0.022,19.95,0,109.9,13.44,-0.38,166.0
"2009-03-28 00:24:30",749187,3.096,207,6.482,1.173,-0.789,99.83084,-1.131,0.081,20.03,0,109.9,13.44,-0.38,169.0
"2009-03-28 00:25:00",749188,2.673,203.2,6.015,1.225,-1.742,99.83084,-1.131,0.095,20.24,0,109.8,13.44,-0.38,165.2
"2009-03-28 00:25:30",749189,2.764,205.3,6.386,1.195,-1.106,99.83366,-1.124,0.187,20.42,0,109.8,13.44,-0.38,167.3
"2009-03-28 00:26:00",749190,3.236,207.8,6.346,1.218,-0.211,99.83592,-1.118,0.178,20.25,0,109.8,13.44,-0.37,169.8
"2009-03-28 00:26:30",749191,3.167,208.2,6.237,1.178,0.38,99.83422,-1.122,0.215,20.21,0,109.8,13.44,-0.37,170.2
"2009-03-28 00:27:00",749192,1.513,198.7,3.589,0.457,-2.818,99.83054,-1.132,0.056,19.73,0,109.8,13.44,-0.38,160.7
"2009-03-28 00:27:30",749193,2.559,206.8,6.252,1.259,-1.462,99.82856,-1.137,0.064,19.57,0,109.8,13.44,-0.39,168.8
"2009-03-28 00:28:00",749194,2.982,212,5.917,1.212,-0.523,99.83109,-1.13,0.177,19.42,0,109.8,13.45,-0.38,174.0
"2009-03-28 00:28:30",749195,2.052,206.2,4.896,1.083,-2.529,99.82684,-1.141,-0.016,19.28,0,109.8,13.45,-0.39,168.2
"2009-03-28 00:29:00",749196,2.594,206,6.925,1.251,-0.909,99.82713,-1.14,0.092,19.27,0,109.8,13.45,-0.39,168.0
"2009-03-28 00:29:30",749197,3.131,208.7,5.177,1.109,0.054,99.82966,-1.134,0.176,19.17,0,109.8,13.45,-0.39,170.7
"2009-03-28 00:30:00",749198,1.985,201.5,5.92,1.122,-1.928,99.83022,-1.132,0.067,19.01,0,109.8,13.45,-0.38,163.5
"2009-03-28 00:30:30",749199,2.094,202.7,6.669,1.159,-2.454,99.82683,-1.141,-0.115,19,0,109.8,13.44,-0.39,164.7
"2009-03-28 00:31:00",749200,2.628,201.5,6.462,1.253,-1.103,99.81469,-1.172,0.047,19.2,0,109.8,13.45,-0.42,163.5
"2009-03-28 00:31:30",749201,2.338,201.2,7.226,1.265,-1.102,99.80056,-1.208,0.089,19.17,0,109.8,13.45,-0.46,163.2
"2009-03-28 00:32:00",749202,2.373,197.7,5.939,1.218,-1.856,99.79661,-1.218,-0.025,19.41,0,109.8,13.45,-0.47,159.7
"2009-03-28 00:32:30",749203,3.113,204.1,6.275,1.061,0.025,99.79661,-1.218,0.107,19.51,0,109.8,13.45,-0.47,166.1
"2009-03-28 00:33:00",749204,2.998,201.8,6.562,1.156,-0.166,99.79661,-1.218,0.06,19.31,0,109.8,13.45,-0.47,163.8
"2009-03-28 00:33:30",749205,1.491,193.3,1.453,0.048,-3.077,99.79661,-1.218,-0.109,18.94,0,109.8,13.48,-0.47,155.3
"2009-03-28 00:34:00",749206,2.332,200.6,5.907,1.196,-1.743,99.79604,-1.22,-0.032,18.79,0,109.8,13.45,-0.47,162.6
"2009-03-28 00:34:30",749207,3.36,204.5,6.347,1.119,0.114,99.78842,-1.239,0.084,18.8,0,109.8,13.45,-0.49,166.5
"2009-03-28 00:35:00",749208,2,199.1,6.061,1.003,-2.555,99.77599,-1.271,-0.08,18.57,0,109.8,13.45,-0.52,161.1
"2009-03-28 00:35:30",749209,2.654,198.9,7.437,1.225,-1.628,99.7627,-1.304,-0.062,18.51,0,109.8,13.45,-0.56,160.9
"2009-03-28 00:36:00",749210,3.527,192,7.572,1.12,0.126,99.7627,-1.304,0.054,18.57,0,109.8,13.46,-0.56,154.0
"2009-03-28 00:36:30",749211,2.063,181.2,3.606,0.686,-2.321,99.76101,-1.309,-0.076,18.35,0,109.8,13.46,-0.56,143.2
"2009-03-28 00:37:00",749212,3.592,187.1,5.442,1.167,0.683,99.74208,-1.357,-0.086,18.11,0,109.8,13.46,-0.61,149.1
"2009-03-28 00:37:30",749213,3.483,185.2,5.743,1.161,0.338,99.7336,-1.379,-0.033,17.91,0,109.8,13.46,-0.63,147.2
"2009-03-28 00:38:00",749214,3.749,188.1,6.542,1.115,0.416,99.73528,-1.374,-0.105,17.67,0,109.8,13.47,-0.63,150.1
"2009-03-28 00:38:30",749215,2.916,185.5,6.044,1.26,-1.374,99.7186,-1.417,-0.126,17.59,0,109.8,13.47,-0.67,147.5
"2009-03-28 00:39:00",749216,2.518,186.2,6.05,1.09,-1.6,99.71519,-1.426,-0.095,17.7,0,109.8,13.47,-0.68,148.2
"2009-03-28 00:39:30",749217,2.543,185.4,6.503,1.165,-1.558,99.71519,-1.426,-0.311,17.6,0,109.8,13.47,-0.68,147.4
"2009-03-28 00:40:00",749218,2.591,192.8,7.759,1.203,-0.12,99.69877,-1.467,-0.094,17.91,0,109.8,13.47,-0.72,154.8
"2009-03-28 00:40:30",749219,2.557,196.8,7.046,1.187,-0.426,99.69396,-1.48,-0.271,17.86,0,109.8,13.47,-0.73,158.8
"2009-03-28 00:41:00",749220,3.347,203.4,6.971,1.1,0.342,99.69481,-1.478,-0.2,18.05,0,109.8,13.47,-0.73,165.4
"2009-03-28 00:41:30",749221,2.309,209.4,6.741,1.269,-1.817,99.68661,-1.498,-0.237,18.05,0,109.8,13.47,-0.75,171.4
"2009-03-28 00:42:00",749222,2.348,209.6,10.24,1.209,-1.654,99.67475,-1.529,-0.292,18.15,0,109.8,13.47,-0.78,171.6
"2009-03-28 00:42:30",749223,1.755,204.1,6.214,0.951,-3.04,99.66232,-1.56,-0.442,18.29,0,109.8,13.47,-0.81,166.1
"2009-03-28 00:43:00",749224,2.233,214.8,7.616,1.197,-0.965,99.6609,-1.564,-0.181,18.63,0,109.8,13.48,-0.82,176.8
"2009-03-28 00:43:30",749225,2.455,217.6,5.562,1.23,-0.626,99.65666,-1.575,-0.318,18.58,0,109.8,13.48,-0.83,179.6
"2009-03-28 00:44:00",749226,2.549,221.1,5.927,1.253,-0.308,99.64536,-1.604,-0.288,18.83,0,109.8,13.48,-0.86,183.1
"2009-03-28 00:44:30",749227,2.312,216.5,6.743,1.28,-1.094,99.62925,-1.645,-0.352,18.91,0,109.8,13.48,-0.90,178.5
"2009-03-28 00:45:00",749228,2.219,215.3,7.412,1.205,-1.855,99.62698,-1.65,-0.447,18.95,0,109.8,13.48,-0.90,177.3
"2009-03-28 00:45:30",749229,1.301,212.5,4.403,0.076,-3.256,99.62698,-1.65,-0.432,19.12,0,109.7,13.52,-0.90,174.5
"2009-03-28 00:46:00",749230,1.806,219.2,4.607,1.108,-1.72,99.62698,-1.65,-0.357,19.27,0,109.7,13.48,-0.90,181.2
"2009-03-28 00:46:30",749231,2.987,217.3,6.283,1.134,0.289,99.6106,-1.692,-0.39,19.23,0,109.7,13.48,-0.95,179.3
"2009-03-28 00:47:00",749232,2.051,212.6,9,1.113,-0.872,99.59336,-1.736,-0.429,19.07,0,109.7,13.48,-0.99,174.6
"2009-03-28 00:47:30",749233,2.055,201.9,6.265,1.142,-1.348,99.59307,-1.737,-0.471,18.95,0,109.7,13.48,-0.99,163.9
"2009-03-28 00:48:00",749234,2.934,202.4,7.336,1.238,-0.13,99.58997,-1.745,-0.4,19,0,109.7,13.48,-1.00,164.4
"2009-03-28 00:48:30",749235,1.921,198.6,5.834,0.871,-2.137,99.5651,-1.808,-0.479,18.9,0,109.7,13.48,-1.06,160.6
"2009-03-28 00:49:00",749236,1.65,195.2,1.421,0.072,-2.82,99.55917,-1.823,-0.538,18.86,0,109.7,13.51,-1.08,157.2
"2009-03-28 00:49:30",749237,3.542,202,5.623,1.094,0.91,99.55973,-1.822,-0.422,18.87,0,109.7,13.48,-1.08,164.0
"2009-03-28 00:50:00",749238,3.443,202.5,5.551,1.076,1.306,99.55547,-1.833,-0.479,18.67,0,109.7,13.48,-1.09,164.5
"2009-03-28 00:50:30",749239,3.123,202.5,6.61,1.219,0.187,99.53989,-1.872,-0.586,18.47,0,109.7,13.48,-1.13,164.5
"2009-03-28 00:51:00",749240,3.355,204.1,7.427,1.086,0.846,99.54214,-1.867,-0.479,18.56,0,109.7,13.48,-1.12,166.1
"2009-03-28 00:51:30",749241,3.018,203.4,5.905,1.225,-0.437,99.54606,-1.857,-0.626,18.31,0,109.7,13.48,-1.11,165.4
"2009-03-28 00:52:00",749242,1.549,203.4,6.078,0.078,-3.229,99.53162,-1.893,-0.774,18.17,0,109.7,13.52,-1.15,165.4
"2009-03-28 00:52:30",749243,2.901,212.7,5.796,1.249,-0.063,99.52369,-1.914,-0.581,18.46,0,109.7,13.5,-1.17,174.7
"2009-03-28 00:53:00",749244,3.395,217.2,6.889,1.026,0.969,99.52454,-1.911,-0.559,18.63,0,109.7,13.5,-1.17,179.2
"2009-03-28 00:53:30",749245,2.469,214.8,6.388,1.217,-0.514,99.50559,-1.96,-0.709,18.6,0,109.7,13.5,-1.21,176.8
"2009-03-28 00:54:00",749246,3.207,222.1,6.039,1.1,0.984,99.49118,-1.996,-0.62,18.75,0,109.7,13.5,-1.25,184.1
"2009-03-28 00:54:30",749247,2.662,220.7,6.629,1.243,-0.395,99.49118,-1.996,-0.727,18.79,0,109.7,13.5,-1.25,182.7
"2009-03-28 00:55:00",749248,1.847,218.1,3.841,0.661,-2.407,99.47817,-2.03,-0.833,18.98,0,109.7,13.5,-1.28,180.1
"2009-03-28 00:55:30",749249,3.179,226.1,6.011,1.191,-0.064,99.45753,-2.082,-0.837,19.29,0,109.7,13.5,-1.34,188.1
"2009-03-28 00:56:00",749250,3.359,230.7,6.605,1.146,1.162,99.45726,-2.083,-0.709,19.87,0,109.7,13.5,-1.34,192.7
"2009-03-28 00:56:30",749251,3.154,230.2,5.441,1.097,1.138,99.43803,-2.132,-0.77,20.03,0,109.7,13.51,-1.39,192.2
"2009-03-28 00:57:00",749252,2.488,224.4,6.183,1.203,0.054,99.42334,-2.169,-0.788,20.04,0,109.7,13.51,-1.42,186.4
"2009-03-28 00:57:30",749253,2.223,212.1,10.64,1.135,-0.788,99.40411,-2.218,-0.912,19.53,0,109.7,13.51,-1.47,174.1
"2009-03-28 00:58:00",749254,1.414,202,4.198,0.068,-3.059,99.38969,-2.255,-1.085,19.04,0,109.6,13.54,-1.51,164.0
"2009-03-28 00:58:30",749255,2.033,221.5,10.55,1.217,-1.085,99.38572,-2.265,-0.957,19.62,0,109.6,13.51,-1.52,183.5
"2009-03-28 00:59:00",749256,2.584,223.9,8.21,1.253,0.005,99.36506,-2.318,-0.992,20.5,0,109.6,13.51,-1.57,185.9
"2009-03-28 00:59:30",749257,2.365,230.4,9.18,1.215,0.271,99.36475,-2.319,-0.925,21.05,0,109.6,13.52,-1.57,192.4
"2009-03-28 01:00:00",749258,2.893,239.1,3.39,1.11,0.953,99.34492,-2.369,-0.933,21.23,0,109.6,13.51,-1.63,201.1
"2009-03-28 01:00:30",749259,2.81,240.1,6.346,1.1,0.631,99.34264,-2.375,-0.983,21.4,0,109.6,13.52,-1.63,202.1
"2009-03-28 01:01:00",749260,1.376,234.8,3.724,0.462,-3.106,99.33357,-2.398,-1.269,21.77,0,109.6,13.52,-1.65,196.8
"2009-03-28 01:01:30",749261,2.263,236.3,4.955,1.254,-1.209,99.3146,-2.446,-1.167,22.49,0,109.6,13.52,-1.70,198.3
"2009-03-28 01:02:00",749262,1.951,233.7,4.742,1.107,-1.106,99.31231,-2.452,-1.173,22.34,0,109.6,13.52,-1.71,195.7
"2009-03-28 01:02:30",749263,2.297,235.5,7.429,1.196,-0.16,99.28797,-2.514,-1.109,22.28,0,109.6,13.52,-1.77,197.5
"2009-03-28 01:03:00",749264,3.633,239,4.861,0.577,2.087,99.28175,-2.53,-1.094,22.25,0,109.6,13.52,-1.79,201.0
"2009-03-28 01:03:30",749265,3.095,235.8,6.209,1.153,0.818,99.25489,-2.599,-1.162,22.24,0,109.6,13.52,-1.86,197.8
"2009-03-28 01:04:00",749266,2.397,233.1,6.605,1.182,-1.219,99.24641,-2.62,-1.365,22.38,0,109.6,13.52,-1.88,195.1
"2009-03-28 01:04:30",749267,2.714,235.9,8.21,1.192,-0.97,99.21954,-2.689,-1.352,22.92,0,109.6,13.52,-1.95,197.9
"2009-03-28 01:05:00",749268,1.946,237.2,3.48,0.978,-1.389,99.2153,-2.699,-1.371,23.98,0,109.6,13.53,-1.96,199.2
"2009-03-28 01:05:30",749269,2.225,234.9,6.093,1.159,-0.695,99.18957,-2.765,-1.333,24.63,0,109.6,13.52,-2.02,196.9
"2009-03-28 01:06:00",749270,3.706,246.8,4.871,0.816,2.075,99.18448,-2.778,-1.288,24.64,0,109.6,13.52,-2.04,208.8
"2009-03-28 01:06:30",749271,3.584,251.3,6.059,1.134,1.133,99.16039,-2.839,-1.369,25.57,0,109.6,13.53,-2.10,213.3
"2009-03-28 01:07:00",749272,3.099,252.7,8.51,1.189,0.089,99.16373,-2.831,-1.48,27.4,0,109.6,13.53,-2.09,214.7
"2009-03-28 01:07:30",749273,3.05,247,7.361,1.168,-0.696,99.14811,-2.871,-1.551,29.51,0,109.6,13.54,-2.13,209.0
"2009-03-28 01:08:00",749274,3.192,246.5,5.681,1.081,-0.352,99.14381,-2.882,-1.523,31.28,0,109.6,13.54,-2.14,208.5
"2009-03-28 01:08:30",749275,2.623,244.6,5.479,1.179,-0.515,99.12822,-2.921,-1.585,32.07,0,109.6,13.54,-2.18,206.6
"2009-03-28 01:09:00",749276,3.295,251.8,5.509,1.107,1.145,99.1166,-2.951,-1.546,32.72,0,109.6,13.54,-2.21,213.8
"2009-03-28 01:09:30",749277,3.104,246.3,6.438,1.252,0.727,99.10612,-2.978,-1.548,32.86,0,109.6,13.54,-2.24,208.3
"2009-03-28 01:10:00",749278,2.792,241.6,7.353,1.168,-0.481,99.0835,-3.035,-1.704,33.24,0,109.5,13.55,-2.29,203.6
"2009-03-28 01:10:30",749279,2.518,239.8,8.23,1.034,-1.099,99.077,-3.052,-1.736,33.46,0,109.5,13.55,-2.31,201.8
"2009-03-28 01:11:00",749280,2.677,236.1,6.177,1.172,-1.012,99.05069,-3.119,-1.787,33.92,0,109.5,13.55,-2.38,198.1
"2009-03-28 01:11:30",749281,3.357,234.1,6.448,1.207,0.309,99.04588,-3.131,-1.779,35.03,0,109.5,13.55,-2.39,196.1
"2009-03-28 01:12:00",749282,3.793,235.3,5.241,1.154,1.18,99.01816,-3.202,-1.728,35.96,0,109.5,13.55,-2.46,197.3
"2009-03-28 01:12:30",749283,3.976,234.3,6.058,1.067,1.508,99.01562,-3.208,-1.705,36.91,0,109.5,13.55,-2.47,196.3
"2009-03-28 01:13:00",749284,3.631,233.7,6.432,1.191,0.366,99.00372,-3.238,-1.856,37.59,0,109.5,13.55,-2.50,195.7
"2009-03-28 01:13:30",749285,3.22,234.8,4.299,1.227,-0.746,98.98615,-3.283,-1.996,38.02,0,109.5,13.55,-2.54,196.8
"2009-03-28 01:14:00",749286,3.461,240.2,6.591,1.191,0.292,98.99146,-3.27,-1.843,38.72,0,109.5,13.56,-2.53,202.2
"2009-03-28 01:14:30",749287,4.018,240.9,6.257,1.052,1.518,98.98348,-3.29,-1.875,39.43,0,109.5,13.56,-2.55,202.9
"2009-03-28 01:15:00",749288,4.325,242.2,5.629,0.838,2.311,98.96819,-3.329,-1.842,39.99,0,109.5,13.56,-2.59,204.2
"2009-03-28 01:15:30",749289,3.984,241.6,5.474,1.038,1.569,98.96758,-3.331,-1.862,40.5,0,109.5,13.56,-2.59,203.6
"2009-03-28 01:16:00",749290,3.334,239.2,6.858,1.214,0.315,98.95511,-3.362,-1.953,40.73,0,109.5,13.57,-2.62,201.2
"2009-03-28 01:16:30",749291,2.613,235.2,6.063,1.01,-0.516,98.94038,-3.4,-2.056,40.84,0,109.5,13.57,-2.66,197.2
"2009-03-28 01:17:00",749292,2.498,233.6,5.447,1.034,-1.061,98.94289,-3.393,-2.123,40.4,0,109.5,13.57,-2.65,195.6
"2009-03-28 01:17:30",749293,3.183,238.7,5.695,1.191,1.015,98.93323,-3.418,-2.086,39.79,0,109.5,13.57,-2.68,200.7
"2009-03-28 01:18:00",749294,3.857,239.5,4.639,0.733,2.126,98.91991,-3.452,-2.025,39.09,0,109.5,13.57,-2.71,201.5
"2009-03-28 01:18:30",749295,3.486,241.6,5.239,0.916,2.06,98.91341,-3.469,-2.017,37.86,0,109.5,13.57,-2.73,203.6
"2009-03-28 01:19:00",749296,2.654,233.5,7.593,1.218,-0.51,98.90916,-3.479,-2.235,36.74,0,109.5,13.57,-2.74,195.5
"2009-03-28 01:19:30",749297,2.773,233,6.216,1.161,-0.842,98.88539,-3.54,-2.222,36.4,0,109.5,13.57,-2.80,195.0
"2009-03-28 01:20:00",749298,1.97,229.9,4.114,0.752,-1.276,98.87945,-3.555,-2.226,37.06,0,109.5,13.57,-2.82,191.9
"2009-03-28 01:20:30",749299,3.519,233.7,5.178,1.058,1.075,98.87973,-3.554,-2.196,37.1,0,109.4,13.57,-2.81,195.7
"2009-03-28 01:21:00",749300,3.407,233.9,5.748,1.121,1.674,98.87406,-3.569,-2.119,36.97,0,109.4,13.57,-2.83,195.9
"2009-03-28 01:21:30",749301,3.915,235.5,4.381,0.961,2.287,98.85677,-3.613,-2.138,36.52,0,109.5,13.57,-2.87,197.5
"2009-03-28 01:22:00",749302,3.41,233.2,6.445,1.127,0.441,98.8578,-3.61,-2.218,37.04,0,109.5,13.57,-2.87,195.2
"2009-03-28 01:22:30",749303,3.229,230.1,6.63,1.186,-0.13,98.86564,-3.59,-2.341,38.72,0,109.4,13.57,-2.85,192.1
"2009-03-28 01:23:00",749304,3.074,226.2,5.64,1.173,-0.235,98.86587,-3.59,-2.297,39.78,0,109.4,13.58,-2.85,188.2
"2009-03-28 01:23:30",749305,3.092,226.8,5.883,1.131,-0.21,98.85251,-3.624,-2.418,40.04,0,109.4,13.58,-2.88,188.8
"2009-03-28 01:24:00",749306,4.045,232.7,5.88,1.006,2.357,98.84147,-3.652,-2.241,39.94,0,109.4,13.58,-2.91,194.7
"2009-03-28 01:24:30",749307,4.074,232.8,4.774,0.939,2.275,98.84426,-3.645,-2.243,38.6,0,109.4,13.58,-2.91,194.8
"2009-03-28 01:25:00",749308,4.132,228.3,6.624,0.923,2.039,98.84483,-3.643,-2.32,37.51,0,109.4,13.59,-2.90,190.3
"2009-03-28 01:25:30",749309,2.752,215.3,6.394,0.929,-0.652,98.83604,-3.666,-2.404,37.08,0,109.4,13.59,-2.93,177.3
"2009-03-28 01:26:00",749310,2.759,215.8,4.898,0.953,-1.391,98.8202,-3.706,-2.473,37.31,0,109.4,13.59,-2.97,177.8
"2009-03-28 01:26:30",749311,3.451,221.1,6.666,1.263,0.972,98.8134,-3.723,-2.473,37.82,0,109.4,13.59,-2.98,183.1
"2009-03-28 01:27:00",749312,3.851,220.4,4.762,0.997,2.399,98.81114,-3.729,-2.305,37.77,0,109.4,13.6,-2.99,182.4
"2009-03-28 01:27:30",749313,3.832,218.4,4.77,1.01,2.426,98.81114,-3.729,-2.335,36.51,0,109.4,13.6,-2.99,180.4
"2009-03-28 01:28:00",749314,3.442,215.5,5.466,1.091,1.998,98.81057,-3.73,-2.388,35.53,0,109.4,13.6,-2.99,177.5
"2009-03-28 01:28:30",749315,2.635,213.1,7.703,1.19,-0.491,98.80547,-3.743,-2.511,35.68,0,109.4,13.6,-3.00,175.1
"2009-03-28 01:29:00",749316,3.049,215.1,5.09,1.262,-0.436,98.78623,-3.792,-2.515,37.18,0,109.4,13.6,-3.05,177.1
"2009-03-28 01:29:30",749317,1.91,208.4,3.678,0.132,-2.08,98.77773,-3.814,-2.637,39.7,0,109.4,13.63,-3.08,170.4
"2009-03-28 01:30:00",749318,3.5,223.7,10.16,1.242,1.755,98.78193,-3.803,-2.397,42.01,0,109.4,13.6,-3.06,185.7
"2009-03-28 01:30:30",749319,4.092,221.7,6.014,0.671,2.96,98.78667,-3.791,-2.334,42.94,0,109.4,13.61,-3.05,183.7
"2009-03-28 01:31:00",749320,3.652,236,6.508,1.285,1.785,98.79003,-3.783,-2.412,43.22,0,109.4,13.61,-3.04,198.0
"2009-03-28 01:31:30",749321,2.909,233.9,6.858,1.172,-0.209,98.79311,-3.775,-2.552,43.54,0,109.4,13.61,-3.04,195.9
"2009-03-28 01:32:00",749322,3.292,230.6,5.309,1.161,-0.226,98.79618,-3.767,-2.533,44.21,0,109.4,13.61,-3.03,192.6
"2009-03-28 01:32:30",749323,2.711,228.1,5.94,0.681,-1.508,98.79868,-3.761,-2.652,45.49,0,109.4,13.61,-3.02,190.1
"2009-03-28 01:33:00",749324,4.66,239.1,4.297,0.69,3.011,98.7947,-3.771,-2.374,47.09,0,109.4,13.61,-3.03,201.1
"2009-03-28 01:33:30",749325,5.169,242.6,4.215,0.799,2.963,98.79156,-3.779,-2.372,47.92,0,109.4,13.61,-3.04,204.6
"2009-03-28 01:34:00",749326,5.241,243.4,3.975,0.679,2.739,98.79179,-3.778,-2.367,49.89,0,109.4,13.61,-3.04,205.4
"2009-03-28 01:34:30",749327,3.262,245,3.474,1.081,-0.66,98.79205,-3.778,-2.604,50.46,0,109.4,13.61,-3.04,207.0
"2009-03-28 01:35:00",749328,3.471,243.5,10.69,1.235,-0.05,98.79119,-3.78,-2.614,49.8,0,109.4,13.61,-3.04,205.5
"2009-03-28 01:35:30",749329,3.775,236,6.943,1.015,-0.773,98.79176,-3.778,-2.569,49.74,0,109.4,13.61,-3.04,198.0
"2009-03-28 01:36:00",749330,5.756,243.1,4.806,0.345,3.17,98.78751,-3.789,-2.394,51.91,0,109.4,13.61,-3.05,205.1
"2009-03-28 01:36:30",749331,5.499,244.1,4.232,0.702,3.196,98.78922,-3.785,-2.391,52.34,0,109.4,13.61,-3.05,206.1
"2009-03-28 01:37:00",749332,5.479,246.5,2.564,0.788,2.755,98.78553,-3.794,-2.401,51.9,0,109.4,13.61,-3.06,208.5
"2009-03-28 01:37:30",749333,4.553,245.2,6.503,1.066,0.838,98.78553,-3.794,-2.533,51.32,0,109.4,13.61,-3.06,207.2
"2009-03-28 01:38:00",749334,4.372,242.3,5.434,1.261,0.151,98.78922,-3.785,-2.566,50.99,0,109.4,13.61,-3.05,204.3
"2009-03-28 01:38:30",749335,4.86,244.5,7.649,1.269,0.953,98.79233,-3.777,-2.474,52.11,0,109.4,13.61,-3.04,206.5
"2009-03-28 01:39:00",749336,5.514,240.2,5.43,1.09,2.041,98.79176,-3.778,-2.444,53.11,0,109.4,13.61,-3.04,202.2
"2009-03-28 01:39:30",749337,5.824,243.1,3.045,0.62,3.215,98.79543,-3.769,-2.378,54.32,0,109.4,13.61,-3.03,205.1
"2009-03-28 01:40:00",749338,5.047,240.1,7.14,1.009,2.165,98.80109,-3.755,-2.416,53.53,0,109.4,13.61,-3.02,202.1
"2009-03-28 01:40:30",749339,4.599,239.4,4.579,0.96,1.762,98.8084,-3.736,-2.477,51.45,0,109.4,13.61,-3.00,201.4
"2009-03-28 01:41:00",749340,3.705,232,5.13,0.916,-0.888,98.81432,-3.721,-2.555,49.43,0,109.4,13.62,-2.98,194.0
"2009-03-28 01:41:30",749341,5.417,239.3,5.465,1.114,1.803,98.825,-3.694,-2.424,50.98,0,109.4,13.62,-2.95,201.3
"2009-03-28 01:42:00",749342,5.44,243,5.345,1.074,2.112,98.82921,-3.683,-2.419,53.25,0,109.4,13.62,-2.94,205.0
"2009-03-28 01:42:30",749343,5.52,246.4,5.538,1.026,1.807,98.83256,-3.674,-2.359,54.84,0,109.4,13.62,-2.94,208.4
"2009-03-28 01:43:00",749344,5.246,249.7,5.567,1.104,1.534,98.83452,-3.669,-2.399,55.81,0,109.3,13.63,-2.93,211.7
"2009-03-28 01:43:30",749345,5.321,248.9,5.203,0.981,1.506,98.8362,-3.665,-2.43,56.51,0,109.3,13.63,-2.93,210.9
"2009-03-28 01:44:00",749346,5.111,245.4,6.334,1.171,0.984,98.83704,-3.663,-2.387,57.11,0,109.3,13.63,-2.92,207.4
"2009-03-28 01:44:30",749347,5.438,245.7,5.834,1.096,2.036,98.83872,-3.659,-2.385,57.5,0,109.3,13.63,-2.92,207.7
"2009-03-28 01:45:00",749348,5.38,243.5,6.141,1.064,1.456,98.8404,-3.654,-2.409,57.75,0,109.3,13.63,-2.92,205.5
"2009-03-28 01:45:30",749349,4.82,241,6.027,1.201,0.753,98.84348,-3.647,-2.388,57.99,0,109.3,13.63,-2.91,203.0